#timestamp,LO_Frequency,Hit,StdDev 
1559246415.5,286047006.4,P
1559246435.3,286047006.1,P
1559246455.2,286047004.8,P
1559246475.0,286047004.5,Y
1559246475.9,286047004.5,P
1559246495.8,286047002.9,P
1559246515.6,286047002.9,N
1559246535.4,286047005.8,Y
1559246555.3,286047001.2,P
1559246575.1,286047001.2,N
1559246595.9,286046999.3,N
1559246615.7,286046996.5,N
1559246635.5,286046998.0,N
1559246655.4,286046994.9,N
1559246675.2,286046998.0,N
1559246725.1,286046996.4,E
1559246735.9,286046993.4,N
1559246755.7,286046994.9,P
1559246775.6,286046999.0,N
1559246795.4,286046999.0,N
1559246815.2,286046999.3,N
1559246835.1,286046999.9,N
1559246836.0,286046999.9,N
1559246855.8,286047001.8,N
1559246875.7,286047003.5,N
1559246895.5,286047005.1,N
1559246915.3,286047005.6,N
1559246935.2,286047006.2,N
1559246955.0,286047010.4,N
1559246955.9,286047010.4,N
1559246975.8,286047010.1,N
1559246995.6,286047007.9,N
1559247015.4,286047009.4,N
1559247035.3,286047013.7,N
1559247055.1,286047016.8,N
1559247075.8,286047014.7,N
1559247095.7,286047014.9,N
1559247115.5,286047011.2,N
1559247135.4,286047011.5,N
1559247155.2,286047011.1,N
1559247175.0,286047008.2,N
1559247176.0,286047008.2,N
1559247195.8,286047008.7,N
1559247215.6,286047008.4,N
1559247235.5,286047006.2,N
1559247255.3,286047004.9,N
1559247275.2,286047005.7,N
1559247295.9,286047003.9,N
1559247315.7,286047002.0,N
1559247335.6,286047004.3,N
1559247355.4,286047001.7,N
1559247375.3,286047004.0,N
1559247395.1,286047004.8,N
1559247396.0,286047004.8,N
1559247415.8,286047005.1,N
1559247435.7,286047004.4,N
1559247455.5,286047001.3,N
1559247475.4,286047004.3,N
1559247495.2,286047003.0,N
1559247515.0,286047006.1,N
1559247515.9,286047006.1,N
1559247535.8,286047005.0,N
1559247555.6,286047003.4,N
1559247575.4,286047002.9,N
1559247595.3,286047003.3,N
1559247615.1,286047005.1,N
1559247635.9,286047004.5,N
1559247655.7,286047005.9,N
1559247675.6,286047004.8,N
1559247695.4,286047004.5,N
1559247715.2,286047004.1,N
1559247735.1,286047004.1,N
1559247736.0,286047004.1,N
1559247755.8,286047005.4,Y
1559247775.7,286047001.8,P
1559247795.5,286047001.9,N
1559247815.3,286047005.9,P
1559247835.2,286047008.0,Y
1559247855.0,286047005.3,P
1559247855.9,286047005.3,P
1559247875.8,286047001.6,N
1559247895.6,286047005.3,Y
1559247915.4,286047003.9,P
1559247935.3,286047000.8,P
1559247955.1,286047003.7,N
1559247975.8,286047003.8,N
1559247995.7,286047001.8,N
1559248015.5,286047000.6,N
1559248035.4,286046998.6,N
1559248055.2,286046999.3,N
1559248075.0,286047002.7,N
1559248075.9,286047002.7,N
1559248095.8,286047000.9,N
1559248115.6,286046998.9,N
1559248135.5,286046998.3,N
1559248155.3,286046998.4,N
1559248175.1,286047000.7,N
1559248195.9,286046998.2,N
1559248215.7,286047001.7,N
1559248235.6,286047003.9,N
1559248255.4,286047001.8,N
1559248275.2,286047003.7,N
1559248295.1,286047001.8,N
1559248296.0,286047001.8,N
1559248315.8,286046999.9,N
1559248335.6,286047000.1,N
1559248355.5,286047002.0,N
1559248375.3,286047001.6,N
1559248395.2,286047008.8,Y
1559248415.9,286047007.9,P
1559248435.7,286047011.9,P
1559248455.6,286047011.8,N
1559248475.4,286047009.4,N
1559248495.3,286047012.7,Y
1559248515.1,286047006.2,P
1559248516.0,286047006.2,P
1559248535.8,286047006.6,P
1559248555.7,286047007.4,Y
1559248575.5,286047000.3,P
1559248595.3,286047006.9,N
1559248615.2,286047010.1,P
1559248635.0,286047010.2,N
1559248635.9,286047010.2,N
1559248655.8,286047010.7,Y
1559248675.6,286046996.6,P
1559248695.4,286046998.5,N
1559248715.3,286047000.8,N
1559248735.1,286046998.2,N
1559248755.9,286047004.1,N
1559248775.7,286047002.0,N
1559248795.5,286047003.7,N
1559248815.4,286047004.3,N
1559248835.2,286047003.4,N
1559248855.0,286047003.0,N
1559248855.9,286047003.0,N
1559248875.8,286047002.1,N
1559248895.6,286046998.1,N
1559248915.5,286046996.6,N
1559248935.3,286047001.4,N
1559248955.1,286047005.5,N
1559248975.9,286047004.7,N
1559248995.7,286047002.0,N
1559249015.5,286046998.5,N
1559249035.4,286046995.3,N
1559249055.2,286046994.6,N
1559249075.1,286046992.5,N
1559249076.0,286046992.5,N
1559249095.8,286046994.3,N
1559249115.6,286046995.1,N
1559249135.5,286046999.6,N
1559249155.3,286047001.4,N
1559249175.2,286047007.1,N
1559249195.9,286047005.4,N
1559249215.7,286047008.2,N
1559249235.6,286047009.6,N
1559249255.4,286047012.9,N
1559249275.2,286047013.4,N
1559249295.1,286047009.9,N
1559249296.0,286047009.9,N
1559249315.8,286047013.4,N
1559249335.7,286047018.4,Y
1559249355.5,286047013.3,P
1559249375.3,286047008.2,N
1559249395.2,286047009.7,N
1559249415.0,286047016.8,Y
1559249415.9,286047016.8,P
1559249435.8,286047011.8,N
1559249455.6,286047011.5,P
1559249475.4,286047009.1,Y
1559249495.3,286046997.3,P
1559249515.1,286046993.4,N
1559249535.9,286046990.5,N
1559249555.7,286046987.6,N
1559249575.5,286046984.6,N
1559249595.4,286046981.3,N
1559249615.2,286046979.8,N
1559249635.0,286046977.3,N
1559249635.9,286046977.3,N
1559249655.8,286046980.0,N
1559249675.6,286046983.0,N
1559249695.5,286046986.2,N
1559249715.3,286046984.4,N
1559249735.1,286046982.7,N
1559249755.9,286046984.8,N
1559249775.7,286046988.4,N
1559249795.6,286046985.4,N
1559249815.4,286046983.7,N
1559249835.2,286046984.5,N
1559249855.1,286046983.9,N
1559249856.0,286046983.9,N
1559249875.8,286046980.9,N
1559249895.6,286046985.2,N
1559249915.5,286046982.6,N
1559249935.3,286046981.0,N
1559249955.2,286046981.3,N
1559249975.9,286046981.1,N
1559249995.7,286046981.1,N
